{"data":{"norad_id":58987,"intl_designator":"2024-032A","name":"CE-SAT-IE","alt_names":[],"object_type":"PAYLOAD","status":"ACTIVE","operator":null,"country":"JPN","launch_date":"2024-02-17","launch_site_code":"TANSC","launch_vehicle":null,"mission":null,"orbit_class":"UNKNOWN","rcs_meters":null,"size_class":null,"mass_kg":null,"dimensions":null,"purposes":[],"wikipedia_slug":null,"has_3d_model":false,"image_url":null,"decayed_at":null,"tle_current":{"epoch":"2026-05-25T03:13:53.690016Z","epoch_age_seconds":57297,"freshness":"FRESH","line1":"1 58987U 24032A   26145.13464919  .00000302  00000+0  60653-4 0  9991","line2":"2 58987  97.9976 200.3368 0003621 134.5091 225.6411 14.68262185121450","mean_motion":14.68262185,"eccentricity":0.0003621,"inclination_deg":97.9976,"raan_deg":200.3368,"arg_perigee_deg":134.5091,"mean_anomaly_deg":225.6411,"bstar":6.0653e-5,"rev_number":12145,"period_min":98.075126820759,"perigee_km":664.07041644903,"apogee_km":669.17223042686,"semimajor_km":7044.7583234379,"source":"CELESTRAK","updated_at":"2026-05-25T13:38:01.118515Z"}}}